Location: Newark
(44.9333°N, 0.5667°E)
Time: 12:59:08
(UTC+00:00)

N. Korean satellite - Pass Details

Date: 16 December 2019
Orbit: 454 x 508 km, 97.2° (Epoch: 17 January)

Event Time Altitude Azimuth Distance (km) Brightness Sun altitude
Rises 17:45:21 0° 197° (SSW) 2,594 10.8 -14.9°
Reaches altitude 10° 17:47:46 10° 213° (SSW) 1,710 10.1 -15.3°
Maximum altitude 17:50:42 22° 266° (W) 1,133 9.4 -15.8°
Drops below altitude 10° 17:53:37 10° 319° (NW) 1,704 9.6 -16.3°
Sets 17:56:02 0° 334° (NNW) 2,583 10.4 -16.7°
